﻿測定場所 (Monitoring sites),日付 (Measurement date),時間 (Measurement time),線量率 最大値 (max) μGy/h,線量率 最小値 (min) μGy/h,線量率 平均値 (average) μGy/h,
足立 (Adachi),2018-06-24,23:01～24:00,0.0320,0.0285,0.0302,
足立 (Adachi),2018-06-24,22:01～23:00,0.0318,0.0287,0.0304,
足立 (Adachi),2018-06-24,21:01～22:00,0.0335,0.0281,0.0303,
足立 (Adachi),2018-06-24,20:01～21:00,0.0327,0.0287,0.0304,
足立 (Adachi),2018-06-24,19:01～20:00,0.0325,0.0288,0.0308,
足立 (Adachi),2018-06-24,18:01～19:00,0.0333,0.0289,0.0306,
足立 (Adachi),2018-06-24,17:01～18:00,0.0323,0.0275,0.0304,
足立 (Adachi),2018-06-24,16:01～17:00,0.0322,0.0289,0.0303,
足立 (Adachi),2018-06-24,15:01～16:00,0.0325,0.0280,0.0303,
足立 (Adachi),2018-06-24,14:01～15:00,0.0319,0.0287,0.0303,
足立 (Adachi),2018-06-24,13:01～14:00,0.0325,0.0283,0.0304,
足立 (Adachi),2018-06-24,12:01～13:00,0.0322,0.0285,0.0305,
足立 (Adachi),2018-06-24,11:01～12:00,0.0335,0.0280,0.0304,
足立 (Adachi),2018-06-24,10:01～11:00,0.0333,0.0297,0.0313,
足立 (Adachi),2018-06-24,09:01～10:00,0.0344,0.0295,0.0321,
足立 (Adachi),2018-06-24,08:01～09:00,0.0351,0.0300,0.0324,
足立 (Adachi),2018-06-24,07:01～08:00,0.0358,0.0301,0.0325,
足立 (Adachi),2018-06-24,06:01～07:00,0.0367,0.0319,0.0347,
足立 (Adachi),2018-06-24,05:01～06:00,0.0360,0.0288,0.0318,
足立 (Adachi),2018-06-24,04:01～05:00,0.0324,0.0288,0.0306,
足立 (Adachi),2018-06-24,03:01～04:00,0.0319,0.0283,0.0302,
足立 (Adachi),2018-06-24,02:01～03:00,0.0331,0.0282,0.0303,
足立 (Adachi),2018-06-24,01:01～02:00,0.0320,0.0285,0.0300,
足立 (Adachi),2018-06-24,00:01～01:00,0.0323,0.0282,0.0303,
足立 (Adachi),2018-06-23,23:01～24:00,0.0320,0.0277,0.0301,
足立 (Adachi),2018-06-23,22:01～23:00,0.0322,0.0285,0.0304,
足立 (Adachi),2018-06-23,21:01～22:00,0.0324,0.0282,0.0305,
足立 (Adachi),2018-06-23,20:01～21:00,0.0355,0.0293,0.0327,
足立 (Adachi),2018-06-23,19:01～20:00,0.0437,0.0330,0.0378,
足立 (Adachi),2018-06-23,18:01～19:00,0.0533,0.0411,0.0475,
足立 (Adachi),2018-06-23,17:01～18:00,0.0518,0.0449,0.0480,
足立 (Adachi),2018-06-23,16:01～17:00,0.0535,0.0366,0.0488,
足立 (Adachi),2018-06-23,15:01～16:00,0.0402,0.0347,0.0369,
足立 (Adachi),2018-06-23,14:01～15:00,0.0359,0.0306,0.0328,
足立 (Adachi),2018-06-23,13:01～14:00,0.0361,0.0310,0.0331,
足立 (Adachi),2018-06-23,12:01～13:00,0.0349,0.0297,0.0323,
足立 (Adachi),2018-06-23,11:01～12:00,0.0336,0.0289,0.0308,
足立 (Adachi),2018-06-23,10:01～11:00,0.0329,0.0291,0.0309,
足立 (Adachi),2018-06-23,09:01～10:00,0.0330,0.0288,0.0308,
足立 (Adachi),2018-06-23,08:01～09:00,0.0328,0.0288,0.0306,
足立 (Adachi),2018-06-23,07:01～08:00,0.0324,0.0285,0.0303,
足立 (Adachi),2018-06-23,06:01～07:00,0.0330,0.0284,0.0308,
足立 (Adachi),2018-06-23,05:01～06:00,0.0331,0.0297,0.0313,
足立 (Adachi),2018-06-23,04:01～05:00,0.0333,0.0294,0.0312,
足立 (Adachi),2018-06-23,03:01～04:00,0.0331,0.0293,0.0309,
足立 (Adachi),2018-06-23,02:01～03:00,0.0331,0.0290,0.0307,
足立 (Adachi),2018-06-23,01:01～02:00,0.0333,0.0292,0.0309,
足立 (Adachi),2018-06-23,00:01～01:00,0.0329,0.0290,0.0308,
足立 (Adachi),2018-06-22,23:01～24:00,0.0332,0.0288,0.0310,
足立 (Adachi),2018-06-22,22:01～23:00,0.0334,0.0292,0.0310,
足立 (Adachi),2018-06-22,21:01～22:00,0.0330,0.0286,0.0307,
足立 (Adachi),2018-06-22,20:01～21:00,0.0323,0.0286,0.0304,
足立 (Adachi),2018-06-22,19:01～20:00,0.0324,0.0280,0.0302,
足立 (Adachi),2018-06-22,18:01～19:00,0.0325,0.0289,0.0304,
足立 (Adachi),2018-06-22,17:01～18:00,0.0323,0.0283,0.0303,
足立 (Adachi),2018-06-22,16:01～17:00,0.0328,0.0284,0.0304,
足立 (Adachi),2018-06-22,15:01～16:00,0.0318,0.0280,0.0301,
足立 (Adachi),2018-06-22,14:01～15:00,0.0320,0.0276,0.0303,
足立 (Adachi),2018-06-22,13:01～14:00,0.0321,0.0285,0.0302,
足立 (Adachi),2018-06-22,12:01～13:00,0.0325,0.0279,0.0302,
足立 (Adachi),2018-06-22,11:01～12:00,0.0320,0.0282,0.0304,
足立 (Adachi),2018-06-22,10:01～11:00,0.0327,0.0287,0.0306,
足立 (Adachi),2018-06-22,09:01～10:00,0.0328,0.0285,0.0308,
足立 (Adachi),2018-06-22,08:01～09:00,0.0321,0.0286,0.0305,
足立 (Adachi),2018-06-22,07:01～08:00,0.0330,0.0283,0.0305,
足立 (Adachi),2018-06-22,06:01～07:00,0.0326,0.0290,0.0306,
足立 (Adachi),2018-06-22,05:01～06:00,0.0324,0.0275,0.0304,
足立 (Adachi),2018-06-22,04:01～05:00,0.0329,0.0278,0.0302,
足立 (Adachi),2018-06-22,03:01～04:00,0.0323,0.0278,0.0299,
足立 (Adachi),2018-06-22,02:01～03:00,0.0324,0.0280,0.0301,
足立 (Adachi),2018-06-22,01:01～02:00,0.0324,0.0288,0.0304,
足立 (Adachi),2018-06-22,00:01～01:00,0.0334,0.0289,0.0305,
足立 (Adachi),2018-06-21,23:01～24:00,0.0322,0.0284,0.0303,
足立 (Adachi),2018-06-21,22:01～23:00,0.0321,0.0285,0.0302,
足立 (Adachi),2018-06-21,21:01～22:00,0.0321,0.0284,0.0304,
足立 (Adachi),2018-06-21,20:01～21:00,0.0324,0.0278,0.0304,
足立 (Adachi),2018-06-21,19:01～20:00,0.0320,0.0281,0.0301,
足立 (Adachi),2018-06-21,18:01～19:00,0.0320,0.0279,0.0301,
足立 (Adachi),2018-06-21,17:01～18:00,0.0318,0.0279,0.0300,
足立 (Adachi),2018-06-21,16:01～17:00,0.0320,0.0278,0.0298,
足立 (Adachi),2018-06-21,15:01～16:00,0.0328,0.0282,0.0301,
足立 (Adachi),2018-06-21,14:01～15:00,0.0312,0.0273,0.0292,
足立 (Adachi),2018-06-21,13:01～14:00,0.0312,0.0275,0.0295,
足立 (Adachi),2018-06-21,12:01～13:00,0.0311,0.0271,0.0293,
足立 (Adachi),2018-06-21,11:01～12:00,0.0312,0.0273,0.0293,
足立 (Adachi),2018-06-21,10:01～11:00,0.0318,0.0279,0.0298,
足立 (Adachi),2018-06-21,09:01～10:00,0.0312,0.0277,0.0294,
足立 (Adachi),2018-06-21,08:01～09:00,0.0314,0.0273,0.0292,
足立 (Adachi),2018-06-21,07:01～08:00,0.0311,0.0268,0.0291,
足立 (Adachi),2018-06-21,06:01～07:00,0.0325,0.0268,0.0300,
足立 (Adachi),2018-06-21,05:01～06:00,0.0347,0.0294,0.0321,
足立 (Adachi),2018-06-21,04:01～05:00,0.0371,0.0300,0.0340,
足立 (Adachi),2018-06-21,03:01～04:00,0.0322,0.0283,0.0306,
足立 (Adachi),2018-06-21,02:01～03:00,0.0327,0.0287,0.0307,
足立 (Adachi),2018-06-21,01:01～02:00,0.0326,0.0289,0.0305,
足立 (Adachi),2018-06-21,00:01～01:00,0.0364,0.0301,0.0330,
足立 (Adachi),2018-06-20,23:01～24:00,0.0430,0.0349,0.0388,
足立 (Adachi),2018-06-20,22:01～23:00,0.0457,0.0367,0.0404,
足立 (Adachi),2018-06-20,21:01～22:00,0.0435,0.0365,0.0390,
足立 (Adachi),2018-06-20,20:01～21:00,0.0416,0.0330,0.0363,
足立 (Adachi),2018-06-20,19:01～20:00,0.0350,0.0288,0.0311,
足立 (Adachi),2018-06-20,18:01～19:00,0.0318,0.0286,0.0299,
足立 (Adachi),2018-06-20,17:01～18:00,0.0320,0.0274,0.0300,
足立 (Adachi),2018-06-20,16:01～17:00,0.0325,0.0276,0.0303,
足立 (Adachi),2018-06-20,15:01～16:00,0.0328,0.0285,0.0308,
足立 (Adachi),2018-06-20,14:01～15:00,0.0346,0.0301,0.0320,
足立 (Adachi),2018-06-20,13:01～14:00,0.0337,0.0297,0.0313,
足立 (Adachi),2018-06-20,12:01～13:00,0.0369,0.0310,0.0332,
足立 (Adachi),2018-06-20,11:01～12:00,0.0395,0.0338,0.0360,
足立 (Adachi),2018-06-20,10:01～11:00,0.0398,0.0330,0.0358,
足立 (Adachi),2018-06-20,09:01～10:00,0.0400,0.0342,0.0362,
足立 (Adachi),2018-06-20,08:01～09:00,0.0375,0.0338,0.0357,
足立 (Adachi),2018-06-20,07:01～08:00,0.0364,0.0308,0.0345,
足立 (Adachi),2018-06-20,06:01～07:00,0.0353,0.0311,0.0330,
足立 (Adachi),2018-06-20,05:01～06:00,0.0362,0.0324,0.0343,
足立 (Adachi),2018-06-20,04:01～05:00,0.0356,0.0311,0.0337,
足立 (Adachi),2018-06-20,03:01～04:00,0.0335,0.0288,0.0312,
足立 (Adachi),2018-06-20,02:01～03:00,0.0326,0.0283,0.0306,
足立 (Adachi),2018-06-20,01:01～02:00,0.0335,0.0281,0.0302,
足立 (Adachi),2018-06-20,00:01～01:00,0.0324,0.0280,0.0301,
足立 (Adachi),2018-06-19,23:01～24:00,0.0328,0.0279,0.0303,
足立 (Adachi),2018-06-19,22:01～23:00,0.0320,0.0277,0.0303,
足立 (Adachi),2018-06-19,21:01～22:00,0.0323,0.0281,0.0304,
足立 (Adachi),2018-06-19,20:01～21:00,0.0320,0.0269,0.0302,
足立 (Adachi),2018-06-19,19:01～20:00,0.0319,0.0282,0.0301,
足立 (Adachi),2018-06-19,18:01～19:00,0.0323,0.0279,0.0303,
足立 (Adachi),2018-06-19,17:01～18:00,0.0327,0.0288,0.0300,
足立 (Adachi),2018-06-19,16:01～17:00,0.0317,0.0279,0.0299,
足立 (Adachi),2018-06-19,15:01～16:00,0.0322,0.0280,0.0301,
足立 (Adachi),2018-06-19,14:01～15:00,0.0315,0.0281,0.0299,
足立 (Adachi),2018-06-19,13:01～14:00,0.0323,0.0274,0.0300,
足立 (Adachi),2018-06-19,12:01～13:00,0.0318,0.0281,0.0300,
足立 (Adachi),2018-06-19,11:01～12:00,0.0315,0.0282,0.0299,
足立 (Adachi),2018-06-19,10:01～11:00,0.0321,0.0282,0.0301,
足立 (Adachi),2018-06-19,09:01～10:00,0.0323,0.0278,0.0298,
足立 (Adachi),2018-06-19,08:01～09:00,0.0319,0.0287,0.0299,
足立 (Adachi),2018-06-19,07:01～08:00,0.0324,0.0283,0.0302,
足立 (Adachi),2018-06-19,06:01～07:00,0.0325,0.0285,0.0306,
足立 (Adachi),2018-06-19,05:01～06:00,0.0326,0.0290,0.0306,
足立 (Adachi),2018-06-19,04:01～05:00,0.0330,0.0279,0.0305,
足立 (Adachi),2018-06-19,03:01～04:00,0.0326,0.0286,0.0306,
足立 (Adachi),2018-06-19,02:01～03:00,0.0328,0.0287,0.0306,
足立 (Adachi),2018-06-19,01:01～02:00,0.0323,0.0285,0.0308,
足立 (Adachi),2018-06-19,00:01～01:00,0.0328,0.0287,0.0306,
足立 (Adachi),2018-06-18,23:01～24:00,0.0330,0.0289,0.0308,
足立 (Adachi),2018-06-18,22:01～23:00,0.0334,0.0295,0.0313,
足立 (Adachi),2018-06-18,21:01～22:00,0.0327,0.0286,0.0309,
足立 (Adachi),2018-06-18,20:01～21:00,0.0325,0.0282,0.0306,
足立 (Adachi),2018-06-18,19:01～20:00,0.0323,0.0292,0.0309,
足立 (Adachi),2018-06-18,18:01～19:00,0.0339,0.0288,0.0313,
足立 (Adachi),2018-06-18,17:01～18:00,0.0323,0.0284,0.0302,
足立 (Adachi),2018-06-18,16:01～17:00,0.0336,0.0287,0.0308,
足立 (Adachi),2018-06-18,15:01～16:00,0.0342,0.0291,0.0319,
足立 (Adachi),2018-06-18,14:01～15:00,0.0359,0.0321,0.0337,
足立 (Adachi),2018-06-18,13:01～14:00,0.0354,0.0285,0.0314,
足立 (Adachi),2018-06-18,12:01～13:00,0.0323,0.0291,0.0306,
足立 (Adachi),2018-06-18,11:01～12:00,0.0327,0.0285,0.0307,
足立 (Adachi),2018-06-18,10:01～11:00,0.0325,0.0285,0.0307,
足立 (Adachi),2018-06-18,09:01～10:00,0.0331,0.0277,0.0305,
足立 (Adachi),2018-06-18,08:01～09:00,0.0321,0.0280,0.0302,
足立 (Adachi),2018-06-18,07:01～08:00,0.0324,0.0288,0.0305,
足立 (Adachi),2018-06-18,06:01～07:00,0.0321,0.0290,0.0304,
足立 (Adachi),2018-06-18,05:01～06:00,0.0317,0.0291,0.0303,
足立 (Adachi),2018-06-18,04:01～05:00,0.0321,0.0282,0.0303,
足立 (Adachi),2018-06-18,03:01～04:00,0.0317,0.0281,0.0300,
足立 (Adachi),2018-06-18,02:01～03:00,0.0323,0.0277,0.0299,
足立 (Adachi),2018-06-18,01:01～02:00,0.0323,0.0279,0.0301,
足立 (Adachi),2018-06-18,00:01～01:00,0.0321,0.0283,0.0304,
